Regional Weather Roundup
Issued by NWS

Home | Current Version | Previous Version | Graphics & Text | Print | Product List | Glossary On
Versions: 1 2 3 4 5 6 7 8 9 10 11 12 13 14 15 16 17 18 19 20 21 22 23 24 25 26 27 28 29 30 31 32 33 34 35 36 37 38 39 40 41 42 43 44 45 46 47 48 49 50
000
ASUS45 KTFX 291604
RWRMT
MONTANA HOURLY WEATHER ROUNDUP
NATIONAL WEATHER SERVICE GREAT FALLS MT
1004 AM MDT SUN MAR 29 2015

NOTE: "FAIR" INDICATES FEW OR NO CLOUDS BELOW 12000 FEET WITH NO
SIGNIFICANT WEATHER AND/OR OBSTRUCTIONS TO VISIBILITY.

* THESE STATIONS ARE NOT UNDER NWS QUALITY CONTROL. THEY DO NOT
   REPORT WEATHER SUCH AS PRECIPITATION OR FOG.

MTZ001>007-043-291700-
WEST OF THE DIVIDE
CITY           SKY/WX    TMP DP  RH WIND       PRES   REMARKS
KALISPELL      CLOUDY    45  36  71 S10       30.25S
MISSOULA       PTCLDY    36  30  79 S3        30.34S
BUTTE          PTSUNNY   34  21  59 CALM      30.30F
MULLAN PASS    CLOUDY    32  28  85 CALM      30.24F
* ESSEX        N/A       39  38  96 N/A        N/A
* LINCOLN      N/A       37  27  67 SW2        N/A
* LOOKOUT PASS N/A       35  33  92 S2         N/A
* POLSON       N/A       42  35  76 S2         N/A
* RONAN APT    PTSUNNY   43  36  76 SE5        N/A
* SEELEY LAKE  N/A       41  31  68 E1         N/A
* THOMP F APT  PTCLDY    37  15  41 SE1        N/A
* YAAK HILL    N/A       39  36  89 S1         N/A
$$

MTZ008-052>055-291700-
SOUTHWEST MONTANA
CITY           SKY/WX    TMP DP  RH WIND       PRES   REMARKS
BOZEMAN        PTSUNNY   43  25  49 N5        30.28S
DILLON         CLOUDY    37  19  48 SW16      30.29F WCI  28
* W YELLOWSTON PTCLDY    32  18  56 NE1        N/A
* TWIN BRIDGES CLOUDY    36  19  50 S7         N/A   WCI  30
* BOULDER HILL N/A       37  18  46 S12G22     N/A   WCI  29
* HOMESTAKE PS N/A       35  16  46 W4         N/A
* MONIDA PASS  N/A       32  19  59 E4         N/A
* RAYNOLDS PAS N/A       32  16  52 S12        N/A   WCI  23
* WHITEHALL    N/A       37  22  55 SE4        N/A
* WISE RIVER   N/A       30  24  78 W6         N/A   WCI  24
$$

MTZ009>010-012-014-046-048-049-054-291700-
EAST SLOPES AND CENTRAL MONTANA
CITY           SKY/WX    TMP DP  RH WIND       PRES   REMARKS
CUT BANK       CLOUDY    46  28  50 SW31G39   30.08F
GREAT FALLS    CLOUDY    46  27  48 SW18      30.14F
HELENA         CLOUDY    48  27  44 N5        30.24F
* DEARBORN     N/A       47  24  40 S11G26     N/A
* EAST GLACIER N/A       38  28  67 W29G40     N/A   WCI  26
* MONARCH      N/A       39  20  46 S11G18     N/A   WCI  32
* PENDROY      N/A       44  28  53 N1         N/A
* ROGERS PASS  N/A       35  22  59 E11G24     N/A   WCI  27
* SAINT MARY   N/A       40  26  57 SW11G25    N/A   WCI  33
$$

MTZ011-013-016-021-035-040-045-047-050-051-291700-
NORTH CENTRAL MONTANA
CITY           SKY/WX    TMP DP  RH WIND       PRES   REMARKS
HAVRE          SUNNY     46  36  68 SW25      30.08F
LEWISTOWN      PTCLDY    48  30  50 SW14      30.16F
* N BAR RANCH  SUNNY     48  27  44 NW13      30.17F
* CHESTER      N/A       40  31  70 SW7G13     N/A   WCI  35
* DENTON       N/A       50  30  46 SW20       N/A
* GEYSER       N/A       46  23  40 SW20G26    N/A
* JUDITH GAP   N/A       46  23  40 N/A        N/A
* LOMA         N/A       49  31  50 SW12G20    N/A
$$

MTZ017>020-022>027-061-062-291700-
NORTHEAST MONTANA
CITY           SKY/WX    TMP DP  RH WIND       PRES   REMARKS
GLASGOW        PTSUNNY   45  37  74 W7        30.11F
GLENDIVE       SUNNY     48  39  71 W15       30.13S
JORDAN         SUNNY     50  36  59 W17       30.13S
SIDNEY         SUNNY     46  37  71 W13G18    30.10S
WOLF POINT     PTSUNNY   46  39  77 W10       30.12R
* BEAVER HILL  N/A       44  37  76 W16        N/A
* CIRCLE       N/A       46  40  80 W14G21     N/A
* LINDSAY DVD  N/A       44  37  76 W22G27     N/A
* NAVAJO       N/A       42  38  86 W13        N/A
* SACO         N/A       45  38  77 SW8        N/A
$$

MTZ028>042-056>058-291700-
SOUTHCENTRAL AND SOUTHEAST MONTANA
CITY           SKY/WX    TMP DP  RH WIND       PRES   REMARKS
BAKER          SUNNY     46  39  77 NW16G23   30.14S
BILLINGS       PTCLDY    50  23  35 SW9       30.20F
LIVINGSTON     PTSUNNY   46  19  34 W22       30.22F
MILES CITY     SUNNY     50  36  59 W14       30.16S
* ALZADA       N/A       46  36  68 W9G14      N/A
* HYSHAM       N/A       48  27  44 W4G9       N/A
* LAME DEER    N/A       43  28  56 SW6G12     N/A
* REED POINT   N/A       50  24  36 W19G26     N/A
* ROSCOE HILL  N/A       42  13  31 NE2        N/A
$$

REGIONAL REPORTS...DAKOTAS
CITY           SKY/WX    TMP DP  RH WIND       PRES   REMARKS
WILLISTON      SUNNY     46  37  71 W15       30.07R
DICKINSON      PTCLDY    45  36  71 NW17      30.07S
CROSBY         SUNNY     45  39  80 W15       30.04R
WATFORD CITY   SUNNY     45  37  74 W15       30.06S
BISMARCK       SUNNY     48  32  54 NW20G26   30.05R
GRAND FORKS    PTCLDY    45  36  71 N26G35    29.82R
FARGO          LGT RAIN  46  36  68 NW29G35   29.81R
BUFFALO SD     SUNNY     46  30  54 W18       30.09S
RAPID CITY     PTCLDY    52  30  43 N26G33    30.20R
$$

REGIONAL REPORTS...WYOMING/IDAHO/WASHINGTON
CITY           SKY/WX    TMP DP  RH WIND       PRES   REMARKS
GILLETTE       SUNNY     48  27  44 NW10      30.22F
SHERIDAN       SUNNY     52  25  35 N9        30.22F
CODY           PTCLDY    50  16  26 SW15      30.21S
YELLOWSTONE LA SUNNY     27  16  63 CALM      30.34F
SALMON         PTCLDY    36  23  59 CALM      30.36F
MULLAN PASS    CLOUDY    32  28  85 CALM      30.24S
SAND POINT     PTSUNNY   43  39  86 SW3       30.28F
SPOKANE        PTSUNNY   46  36  68 S9        30.25F

$$



USA.gov is the U.S. government's official web portal to all federal, state and local government web resources and services.